Location: Rogalle
(42.8890°N, 1.1916°E)
Time: 00:54:30
(UTC+00:00)

NOSS 2-3 (D) - Pass Details

Date: 13 December 2025
Orbit: 497 x 1701 km, 63.3° (Epoch: 24 April)

Event Time Altitude Azimuth Distance (km) Brightness Sun altitude
Rises 16:57:04 0° 209° (SSW) 2,680 7.8 -6.6°
Reaches altitude 10° 16:59:18 10° 206° (SSW) 1,732 6.7 -7.0°
Maximum altitude 17:03:00 68° 123° (ESE) 538 3.2 -7.6°
Drops below altitude 10° 17:06:43 10° 41° (NE) 1,740 5.3 -8.2°
Enters shadow 17:07:02 - 40° (NE) 1,872 5.5 -8.3°
